Powrót do katalogu

STARLINK-36628

AktywnyŁącznośćSSO
NORAD 67595·PAYLOAD·🇺🇸 United States

Wystrzelony Jan 29, 2026 z Vandenberg Space Force Base

Loading…

Następne Przeloty (najbliższe 24 godziny)

TLE

ŚwieżeSource: CelesTrak SupGP

Epoka: Sep 14, 2026, 23:08 UTC

1 67595C 26018G   26257.96437500  .00002511  00000+0  77947-4 0  2578
2 67595  97.2856 321.4735 0000519  98.7933 140.8581 15.33440426    10

Śledź STARLINK-36628 w czasie rzeczywistym z AllMySat

Download on the App Store